[Iaude] MPEC C58: 2024 CV [a=1.44,e=0.54,i=32.7,H=21.8]
    mpec at cfa.harvard.edu 
    mpec at cfa.harvard.edu
       
    Mon Feb  5 23:37:52 EST 2024
    
    
  
M.P.E.C. 2024-C58                              Issued 2024 February 6, 04:36 UT
     The Minor Planet Electronic Circulars contain information on unusual
         minor planets, routine data on comets and natural satellites,
         and occasional editorial announcements.  They are published
    on behalf of Division F of the International Astronomical Union by the
          Minor Planet Center, Smithsonian Astrophysical Observatory,
                          Cambridge, MA 02138, U.S.A.
			  
             Prepared using the Tamkin Foundation Computer Network
                              MPC at CFA.HARVARD.EDU
            URL https://www.minorplanetcenter.net/    ISSN 1523-6714
                                    2024 CV                                     
Observations:
     K24C00V* C2024 02 03.46347209 38 46.597+48 06 11.17         22.07wXEC058F52
     K24C00V  C2024 02 03.47712609 38 41.884+48 06 10.18         21.60wXEC058F52
     K24C00V  C2024 02 03.49078009 38 37.226+48 06 08.66         21.84wXEC058F52
     K24C00V KC2024 02 03.55937809 38 13.682+48 05 59.60         22.26GVEC058F52
     K24C00V KC2024 02 05.12610909 29 16.544+48 00 42.80         21.78GVEC058V06
     K24C00V KC2024 02 05.13087509 29 14.867+48 00 41.40         21.42GVEC058V06
     K24C00V KC2024 02 05.13564009 29 13.146+48 00 40.72         21.84GVEC058V06
     K24C00V KC2024 02 05.14040509 29 11.440+48 00 39.67         21.89GVEC058V06
     K24C00V  C2024 02 05.41152009 27 33.917+47 59 26.20         21.75GVEC058F52
     K24C00V  C2024 02 05.41233909 27 33.658+47 59 25.79         21.63GVEC058F52
     K24C00V KC2024 02 06.15791609 23 04.01 +47 54 40.3          22.6 GVEC058H21
     K24C00V KC2024 02 06.16770609 23 00.34 +47 54 36.6          22.1 GVEC058H21
     K24C00V KC2024 02 06.17441909 22 57.86 +47 54 33.9          21.8 GVEC058H21
Observer details:
F52 Pan-STARRS 2, Haleakala.  Observers J. Herman, T. Lowe, P. Minguez, A.
    Schultz, I. Smith.  Measurers K. Chambers, T. de Boer, J. Fairlamb, H.
    Gao, M. Huber, C.-C. Lin, E. Magnier, Y. Ramanjooloo, R. Wainscoat, R.
    Weryk.  1.8-m Ritchey-Chretien + CCD.
H21 Astronomical Research Observatory, Westfield.  Observer R. Holmes.
    Measurers T. Linder, R. Holmes, L. Horn.  0.76-m f/3.0 astrograph + CCD.
V06 Catalina Sky Survey-Kuiper.  Observer H. Groeller.  Measurers T. Beuden,
    V. F. Carvajal, D. Fay, J. B. Fazekas, D. C. Fuls, A. R. Gibbs, A. D.
    Grauer, H. Groeller, J. K. Hogan, R. A. Kowalski, S. M. Larson, G. J.
    Leonard, D. Rankin, R. L. Seaman, F. C. Shelly, K. W. Wierzchos.  1.55-m
    reflector + 1K CCD.
Orbital elements:
2024 CV                                                  Earth MOID = 0.0707 AU
Epoch 2023 Sept. 13.0 TT = JDT 2460200.5                MPC                     
M 219.81718              (2000.0)            P               Q                  
n   0.57010058     Peri.  282.15743     -0.23512172     +0.93264670             
a   1.4404617      Node   329.56604     -0.53855848     -0.35938629             
e   0.5393997      Incl.   32.70008     -0.80911838     -0.03180617             
P   1.73           H   21.85          G   0.15           U   9                  
Residuals in seconds of arc
240203 F52  0.2-  0.3-    240205 V06  0.1+  0.2-    240206 H21  0.1-  0.1-
240203 F52  0.4-  0.0     240205 V06  0.0   0.2+    240206 H21  0.1-  0.0
240203 F52  0.1-  0.0     240205 V06  0.0   0.2+    240206 H21  0.2+  0.1-
240203 F52  0.1+  0.0     240205 F52  0.2-  0.0
240205 V06  0.1-  0.2+    240205 F52  0.2+  0.1-
Ephemeris:
2024 CV                  a,e,i = 1.44, 0.54, 33                  q = 0.6635
Date    TT    R. A. (2000) Decl.     Delta      r    Elong.  Phase     V
2024 01 07    10 56 09.0 +44 16 38   0.8200  1.6289   129.0    28.0    23.7
...
2024 01 22    10 30 45.2 +46 53 54   0.6276  1.5246   141.2    23.9    22.9
...
2024 01 30    10 01 19.5 +47 57 50   0.5399  1.4652   146.3    21.9    22.4
...
2024 02 05    09 29 59.9 +48 01 22   0.4832  1.4189   148.0    21.6    22.1
2024 02 06    09 24 01.2 +47 55 45   0.4747  1.4110   148.0    21.8    22.0
2024 02 07    09 17 50.7 +47 47 56   0.4664  1.4031   147.8    22.0    22.0
...
2024 02 13    08 37 34.9 +46 05 51   0.4228  1.3548   144.8    24.8    21.8
...
2024 02 21    07 41 32.5 +40 55 03   0.3825  1.2882   135.1    32.8    21.7
...
2024 03 07    06 19 59.6 +24 04 33   0.3630  1.1572   108.0    54.7    22.0
A. U. Tomatic                (C) Copyright 2024 MPC           M.P.E.C. 2024-C58
    
    
More information about the Iaude
mailing list